Weather History for New Philadelphia, OH

Change the Weather History Date:

Sunday, December 18, 2011

  Actual Average Record
Temperature  
Mean Temperature 32 °F 32 °F  
Max Temperature 36 °F 40 °F 65 °F (1984)
Min Temperature 28 °F 24 °F -9 °F (1989)
Degree Days  
Heating Degree Days 33 33  
Month to date heating degree days 552  
Since 1 July heating degree days 1710  
Cooling Degree Days 0 0  
Month to date cooling degree days 0  
Year to date cooling degree days 697  
Moisture  
Dew Point 25 °F    
Average Humidity 77    
Maximum Humidity 93    
Minimum Humidity 60    
Precipitation  
Precipitation 0.00 in 0.08 in 0.64 in (1949)
Month to date precipitation 1.58  
Year to date precipitation 37.81  
Sea Level Pressure  
Sea Level Pressure 30.24 in    
Wind  
Wind Speed 2 mph (WSW)    
Max Wind Speed 8 mph    
Max Gust Speed -    
Visibility 8 miles    
Events Snow    
T = Trace of Precipitation, MM = Missing Value Source: NWS Daily Summary

Daily Weather History Graph

Daily Weather History Graph

Search for Another Location

Airport:

Trip Planner

Search our weather history database for the weather conditions in past years. The results will help you decide how hot, cold, wet, or windy it might be!

Date:

Astronomy

Dec. 18, 2011 Rise Set
Actual Time 7:43 AM EST 5:00 PM EST
Civil Twilight 7:12 AM EST 5:31 PM EST
Nautical Twilight 6:38 AM EST 6:06 PM EST
Astronomical Twilight 6:05 AM EST 6:39 PM EST
Moon 12:41 AM EST (12/18) 12:26 PM EST (12/18)
Length of Visible Light 10h 18m
Length of Day
9h 17m
Last Quarter, 42% of the Moon is Illuminated
Dec 18
Last Quarter
Dec 24
New
Jan 1
First Quarter
Jan 9
Full
Jan 16
Last Quarter

Hourly Weather History & Observations

Time (EST) Temp. Windchill Dew Point Humidity Pressure Visibility Wind Dir Wind Speed Gust Speed Precip Events Conditions
12:00 AM 28.4 °F - 26.6 °F 93% 30.20 in 3.0 mi Calm Calm - 0.00 in Snow Light Snow
12:32 AM 28.4 °F - 24.8 °F 86% 30.19 in 6.0 mi Calm Calm - 0.00 in   Overcast
12:43 AM 28.4 °F - 24.8 °F 86% 30.19 in 6.0 mi Calm Calm - 0.00 in   Overcast
12:53 AM 28.9 °F - 25.0 °F 85% 30.22 in 6.0 mi Calm Calm - 0.00 in   Overcast
1:03 AM 28.4 °F - 24.8 °F 86% 30.19 in 7.0 mi Calm Calm - N/A   Overcast
1:53 AM 28.9 °F 25.2 °F 25.0 °F 85% 30.22 in 6.0 mi Variable 3.5 mph - N/A   Overcast
2:46 AM 28.4 °F - 24.8 °F 86% 30.20 in 7.0 mi Calm Calm - N/A   Overcast
2:53 AM 30.0 °F 26.5 °F 24.1 °F 79% 30.23 in 8.0 mi West 3.5 mph - N/A   Overcast
3:32 AM 28.4 °F - 24.8 °F 86% 30.20 in 8.0 mi Calm Calm - N/A   Overcast
3:53 AM 28.9 °F 25.2 °F 24.1 °F 82% 30.24 in 8.0 mi WSW 3.5 mph - N/A   Overcast
4:53 AM 30.0 °F 26.5 °F 25.0 °F 82% 30.24 in 7.0 mi West 3.5 mph - N/A   Overcast
5:05 AM 30.2 °F - 24.8 °F 80% 30.20 in 7.0 mi Calm Calm - N/A   Overcast
5:53 AM 30.0 °F 26.5 °F 25.0 °F 82% 30.24 in 8.0 mi West 3.5 mph - N/A   Overcast
6:53 AM 30.0 °F 26.5 °F 25.0 °F 82% 30.26 in 7.0 mi Variable 3.5 mph - N/A   Overcast
7:09 AM 30.2 °F - 24.8 °F 80% 30.23 in 6.0 mi Calm Calm - N/A   Haze
7:21 AM 30.2 °F 26.7 °F 26.6 °F 86% 30.23 in 6.0 mi West 3.5 mph - N/A   Haze
7:44 AM 30.2 °F - 26.6 °F 86% 30.23 in 7.0 mi Calm Calm - N/A   Overcast
7:53 AM 30.9 °F 27.5 °F 26.1 °F 82% 30.27 in 7.0 mi West 3.5 mph - N/A   Overcast
8:53 AM 30.9 °F 27.5 °F 25.0 °F 79% 30.27 in 6.0 mi Variable 3.5 mph - N/A   Haze
9:53 AM 33.1 °F 30.0 °F 25.0 °F 72% 30.30 in 8.0 mi WNW 3.5 mph - N/A   Overcast
10:53 AM 33.1 °F 26.1 °F 25.0 °F 72% 30.30 in 9.0 mi West 8.1 mph - N/A   Overcast
11:53 AM 34.0 °F 28.8 °F 24.1 °F 67% 30.29 in 10.0 mi WSW 5.8 mph - N/A   Overcast
1:31 PM 35.6 °F 29.9 °F 23.0 °F 60% 30.25 in 10.0 mi West 6.9 mph - N/A   Overcast
2:04 PM 35.6 °F 30.7 °F 24.8 °F 65% 30.24 in 10.0 mi WSW 5.8 mph - N/A   Overcast
2:39 PM 35.6 °F 30.7 °F 24.8 °F 65% 30.24 in 10.0 mi WSW 5.8 mph - N/A   Overcast
2:53 PM 36.0 °F 30.3 °F 24.1 °F 62% 30.27 in 10.0 mi West 6.9 mph - N/A   Overcast
3:53 PM 36.0 °F 31.1 °F 24.1 °F 62% 30.26 in 10.0 mi West 5.8 mph - N/A   Mostly Cloudy
4:40 PM 35.6 °F 32.8 °F 24.8 °F 65% 30.23 in 9.0 mi WSW 3.5 mph - N/A   Mostly Cloudy
4:53 PM 35.1 °F - 25.0 °F 67% 30.27 in 9.0 mi Calm Calm - N/A   Scattered Clouds
5:53 PM 33.1 °F 28.7 °F 25.0 °F 72% 30.25 in 9.0 mi South 4.6 mph - N/A   Clear
6:53 PM 30.9 °F 26.2 °F 25.0 °F 79% 30.24 in 8.0 mi SSE 4.6 mph - N/A   Clear
7:53 PM 30.9 °F 27.5 °F 24.1 °F 76% 30.24 in 8.0 mi SSE 3.5 mph - N/A   Clear
9:53 PM 30.9 °F 26.2 °F 24.1 °F 76% 30.21 in 10.0 mi SSE 4.6 mph - N/A   Clear
10:53 PM 32.0 °F 26.4 °F 24.1 °F 73% 30.20 in 10.0 mi SSE 5.8 mph - N/A   Clear
11:53 PM 34.0 °F 29.8 °F 25.0 °F 70% 30.19 in 10.0 mi South 4.6 mph - N/A   Clear